Flag for Kiribati Weather past 2 weeks in Kiritimati, Christmas Island, Kiribati

Now
79 °F

Passing clouds.


Feels Like: 82 °F
Forecast: 77 / 83 °F
Wind: 14 mph from Southeast

Location: Christmas / Cassidy

Current Time: Mar 4, 2015 at 5:09:35 AM

Latest Report: Mar 4, 2015 at 4:00 AM


Visibility: N/A

Pressure: 29.71 "Hg

Humidity: 89%

Dew point: 75 °F

Location of KiritimatiLocation

Historic Weather in Kiritimati — Graph

°F

Kiritimati temperature yesterday

Maximum temperature yesterday: 86 °F (at 11:00 AM)
Minimum temperature yesterday: 79 °F (at 1:00 AM)
Average temperature yesterday: 82 °F

Past Weeks' High & Low Weather Summary

 TemperatureHumidityPressure
High88 °F (Feb 27, 2:00 PM)100% (Feb 18, 3:00 AM)29.86 "Hg (Feb 18, 3:00 AM)
Low73 °F (Feb 18, 3:00 AM)66% (Feb 17, 12:00 PM)29.65 "Hg (Mar 1, 4:00 PM)
Average81 °F79%29.77 "Hg
* Reported Feb 17 10:00 AM — Mar 4 4:00 AM, Kiritimati, Weather by CustomWeather, © 2015

Note: Actual official high and low records may vary slightly from our data, if they occured in-between our weather recording intervals... More about our weather records

Advertising

Kiritimati weather history for previous 24 hours

 ConditionsComfort  
Time TempWeatherWind HumidityBarometerVisibility
4:00 AM
Wed, Mar 4
79 °FPassing clouds.14 mph89%29.71 "HgN/A
3:00 AM77 °FPartly cloudy.10 mph94%29.74 "HgN/A
2:00 AM77 °FRain. Mostly cloudy.9 mph100%29.77 "HgN/A
12:00 AM81 °FRain showers. Partly cloudy.18 mph89%29.80 "Hg31 mi
11:00 PM
Tue, Mar 3
81 °FPassing clouds.7 mph84%29.80 "HgN/A
10:00 PM81 °FPassing clouds.9 mph89%29.77 "HgN/A
9:00 PM81 °FPassing clouds.18 mph89%29.80 "HgN/A
8:00 PM81 °FPassing clouds.12 mph89%29.77 "HgN/A
7:00 PM81 °FOvercast.12 mph84%29.74 "HgN/A
6:00 PM82 °FPassing clouds.9 mph84%29.71 "HgN/A
5:00 PM82 °FScattered clouds.16 mph84%29.68 "HgN/A
4:00 PM84 °FWarm.18 mph79%29.68 "HgN/A
3:00 PM86 °FScattered clouds.16 mph75%29.68 "HgN/A
2:00 PM86 °FScattered clouds.14 mph75%29.71 "HgN/A
1:00 PM86 °FScattered clouds.14 mph70%29.71 "HgN/A
12:00 PM86 °FScattered clouds.18 mph75%29.74 "HgN/A
11:00 AM86 °FWarm.12 mph75%29.77 "HgN/A
10:00 AM84 °FScattered clouds.14 mph79%29.77 "HgN/A
9:00 AM84 °FScattered clouds.7 mph79%29.77 "HgN/A
8:00 AM82 °FBroken clouds.7 mph79%29.77 "HgN/A
7:00 AM79 °FScattered clouds.5 mph89%29.74 "HgN/A
6:00 AM79 °FScattered clouds.1 mph89%29.74 "HgN/A
5:00 AM79 °FPassing clouds.2 mph89%29.71 "HgN/A
Weather by CustomWeather, © 2015

See weather overviewHow to use our weather pages